Location: Sternwarte_Laufen
(47.9344°N, 12.9346°E)
Time: 16:26:58
(UTC+02:00)

ISS - Pass Details

Date: 23 May 2018
Orbit: 402 x 406 km, 51.6° (Epoch: 19 June)

Event Time Altitude Azimuth Distance (km) Brightness Sun altitude
Rises 23:40:26 0° 271° (W) 2,319 0.3 -18.8°
Reaches altitude 10° 23:42:35 10° 278° (W) 1,460 -0.7 -18.9°
Maximum altitude 23:45:44 44° 353° (N) 572 -2.6 -19.1°
Drops below altitude 10° 23:48:53 10° 67° (ENE) 1,460 -1.0 -19.3°
Sets 23:51:01 0° 74° (ENE) 2,320 0.0 -19.4°
